CAPE
237 286 348 201 67 91 72 114 113 0 0 0 0 0 14 133 68 0 86 163 352 541 882 1174 1493 1530 1608 1302 1552 1701 1565 1565 1618 1797 1948 1926 1869 1863 1851 2012 1392 1281 1079 1988 2162 1913 2001 1684 1570
0 60 31 16 25 23 62 243 21 17 0 0 24 54 84 138 178 95 122 227 368 573 765 1037 1346 1594 1461 1454 1539 1576 1583 1619 2011 1963 2059 2073 2032 2079 2197 1853 2024 1916 1525 1055 1730 1995 2320 2055 1706
8 51 0 0 9 49 36 247 125 19 0 0 58 40 102 113 161 76 157 247 411 615 758 1019 1216 1406 1508 1542 1479 1586 1640 1579 1639 1758 1913 1847 2044 1946 1647 1479 1630 2042 1949 2147 1203 1707 1683 1800 1877
4 0 0 0 12 31 228 199 86 74 56 37 16 40 37 117 64 124 200 234 390 614 756 1095 1251 1535 1529 1686 1657 1576 1561 1491 1443 1347 1317 1304 1229 1193 1421 1981 2241 1578 1169 1666 2081 1406 2165 2418 1872
65 0 0 23 49 40 72 141 338 194 85 32 0 0 0 135 123 155 299 237 282 492 707 1042 1226 1469 1514 1455 1404 1677 1586 1540 1529 1502 1398 1188 961 947 1136 1079 1001 1399 2119 1579 1179 1405 1524 1905 1907
2 6 22 51 98 111 249 146 358 238 64 0 0 0 12 231 133 166 298 264 222 368 635 982 1369 1457 1552 1668 1661 1570 1530 1553 1525 1374 1134 1222 1522 1687 1743 1886 1614 1568 1408 1511 2029 1735 1207 1169 1548
0 103 125 101 129 263 226 382 310 227 70 0 0 0 31 149 137 170 278 257 190 371 617 830 1130 1470 1484 1501 1542 1562 1514 1523 1487 1210 1466 1815 1563 1337 1505 1421 1475 1445 1485 1513 1419 1746 1954 1842 1603
0 41 180 230 253 336 381 439 311 281 155 10 12 2 0 116 109 193 413 313 232 415 648 787 730 928 1011 1188 1584 1470 1722 1580 1495 1340 1794 1647 1566 1325 1350 1093 1156 1272 1415 1383 1276 1452 1547 1596 1644
13 47 40 60 267 545 522 374 343 263 78 100 137 17 71 197 86 171 401 438 305 354 596 820 890 993 1349 1692 1615 1679 1876 1765 1642 1499 1415 1381 1465 1683 757 249 318 1349 1402 1500 1559 1379 1484 1528 1581
0 50 45 121 503 553 608 414 378 349 218 59 62 51 231 138 55 57 134 125 235 312 443 805 990 1074 1223 1412 2017 1961 1973 1597 1029 673 272 282 521 659 240 102 26 168 1050 1121 1403 1323 1448 1058 906
0 10 33 49 398 766 571 158 633 446 273 185 45 31 131 229 53 0 0 0 18 179 446 596 873 1279 1370 1075 1804 1873 1200 562 412 144 68 134 122 99 68 34 26 30 623 1184 1149 1143 944 498 724
9 17 6 324 691 754 670 457 549 478 384 305 51 55 95 79 89 0 0 0 56 126 402 579 758 1269 1290 1594 1656 1012 440 145 117 115 67 112 68 67 11 18 28 68 74 999 1156 759 866 1251 1082
0 185 423 713 762 862 806 782 712 513 523 360 191 179 162 58 0 0 0 0 18 97 172 430 696 1225 1310 1412 1131 493 414 115 15 27 5 3 0 0 1 9 7 138 79 507 676 447 332 405 584
184 395 573 833 846 748 723 777 755 606 653 488 264 193 292 254 129 0 0 98 254 250 278 395 647 906 1430 1482 784 318 374 153 57 23 12 0 0 0 0 6 14 186 174 75 216 172 336 532 421
258 410 578 639 788 700 834 594 533 613 725 693 513 347 415 478 466 410 203 397 800 799 772 688 794 726 989 1091 349 510 147 305 224 74 0 0 0 0 0 6 36 143 288 25 133 424 464 440 655
255 279 279 809 786 855 719 110 603 629 619 724 725 625 532 638 677 664 633 702 801 841 737 859 720 807 988 1005 976 731 461 416 363 213 23 0 0 0 0 0 29 358 422 176 354 361 516 503 642
132 179 195 556 924 915 595 262 576 707 672 615 662 669 574 749 824 810 754 762 817 721 640 724 804 891 1011 1039 992 731 551 586 509 212 0 3 114 53 49 0 120 575 603 307 218 419 272 379 367
85 89 168 292 618 771 880 422 698 628 632 492 571 676 652 632 615 781 790 769 606 651 684 744 690 764 947 898 854 748 604 434 173 42 26 41 504 405 464 545 449 460 398 493 340 218 224 259 188
2 0 68 214 349 509 565 473 392 683 633 601 540 496 541 421 575 661 696 646 657 622 639 567 571 737 934 865 769 780 811 811 556 420 243 60 163 746 807 622 661 462 398 300 356 292 185 302 278
1 8 0 0 88 306 323 314 426 899 627 593 548 498 430 433 552 594 542 596 626 614 548 595 575 754 834 928 884 971 961 643 752 706 547 447 454 649 575 481 391 315 322 333 408 315 205 269 454
18 29 2 0 26 361 331 126 232 472 850 975 776 635 525 403 340 436 485 565 659 591 529 608 671 789 884 857 918 891 889 801 773 755 854 745 634 567 774 1027 309 158 170 284 392 368 272 514 303
51 2 0 0 0 28 244 26 18 218 498 846 890 906 656 557 398 340 400 473 555 567 613 603 738 796 957 984 814 758 750 818 617 850 956 1003 926 853 821 658 276 138 96 147 312 554 425 402 250
0 0 0 0 1 30 76 65 37 29 51 356 993 955 854 629 522 379 429 444 520 571 519 549 655 726 809 885 849 875 853 880 1135 981 833 761 775 813 892 715 675 161 579 360 593 625 798 788 433
0 0 0 0 0 0 0 42 0 0 3 91 493 858 875 648 567 513 506 488 543 513 520 502 550 633 717 812 834 871 895 893 1180 1156 962 930 1153 1087 898 546 199 1 93 583 777 820 814 1051 1025
0 0 0 0 0 0 0 6 0 0 29 140 135 223 493 485 393 443 486 476 585 595 628 629 635 646 703 709 815 856 958 947 1107 1237 1247 1357 1202 1060 1187 725 361 97 62 230 180 342 874 885 692
0 0 0 0 0 0 0 0 0 14 157 209 503 286 410 521 467 451 642 604 715 775 758 747 823 789 765 757 723 769 901 1025 1044 1269 1387 1388 1153 1085 709 907 743 456 341 289 159 257 516 1044 1099
0 0 0 0 0 0 0 1 16 53 178 432 475 468 457 513 618 507 500 489 314 405 684 943 1139 1132 941 797 620 661 844 904 530 428 969 1253 1428 1041 1069 1187 1179 826 599 638 270 230 182 406 605
0 0 0 0 0 0 0 7 6 37 301 403 470 434 455 381 389 554 609 437 228 273 316 775 1004 980 900 522 317 209 202 142 66 83 395 554 650 560 425 984 1059 817 1050 1183 1275 1145 1308 1403 1436
0 0 0 0 0 0 0 1 45 86 199 289 420 452 440 461 455 674 982 964 461 131 288 453 607 749 494 375 60 1 2 17 38 20 76 181 383 718 52 189 1016 1087 1339 903 718 1018 1117 821 597
0 0 0 0 0 0 0 0 27 242 256 438 427 538 518 439 459 637 690 780 577 466 223 29 265 494 262 38 1 0 5 35 18 3 27 50 5 52 139 817 1079 806 320 284 213 121 77 42 36
CIN
-314 -315 -318 -298 -72 -57 -47 -23 -52 -0 -0 -0 -0 -0 -9 -82 -71 -0 -173 -95 -39 -10 -0 -0 -0 -0 -0 -6 -5 -2 -2 -1 -0 -0 -0 -0 -0 -0 -0 -0 -0 -4 -25 -0 -0 -0 -0 -1 -13
-0 -376 -207 -226 -76 -61 -44 -42 -48 -26 -0 -0 -97 -88 -74 -68 -175 -194 -161 -70 -35 -18 -0 -0 -3 -0 -1 -2 -1 -1 -0 -0 -0 -0 -0 -0 -0 -0 -0 -0 -0 -0 -10 -34 -3 -1 -0 -0 -5
-257 -288 -0 -0 -57 -47 -33 -48 -48 -66 -0 -0 -75 -116 -104 -111 -140 -182 -146 -85 -27 -19 -1 -0 -3 -1 -0 -0 -1 -1 -0 -1 -1 -2 -0 -0 -0 -0 -1 -0 -1 -0 -0 -0 -35 -5 -3 -1 -0
-46 -0 -0 -0 -86 -117 -59 -70 -68 -57 -64 -74 -85 -95 -176 -106 -148 -131 -110 -93 -34 -23 -6 -1 -2 -0 -0 -0 -0 -0 -4 -6 -15 -18 -20 -13 -13 -19 -11 -0 -0 -1 -20 -2 -0 -13 -0 -0 -0
-271 -0 -0 -122 -95 -130 -135 -84 -55 -36 -110 -74 -0 -0 -0 -116 -114 -106 -65 -90 -60 -32 -12 -0 -1 -0 -1 -1 -2 -0 -2 -5 -7 -9 -10 -14 -25 -28 -21 -33 -36 -13 -0 -6 -16 -6 -2 -0 -0
-99 -190 -116 -65 -54 -68 -66 -82 -43 -49 -151 -0 -0 -0 -156 -93 -78 -82 -54 -77 -71 -49 -17 -0 -1 -0 -1 -0 -0 -0 -2 -3 -4 -9 -16 -12 -0 -0 -0 -0 -0 -0 -2 -0 -0 -0 -12 -17 -2
-0 -55 -48 -64 -52 -37 -47 -61 -40 -44 -117 -0 -0 -0 -125 -99 -68 -74 -50 -69 -85 -35 -18 -6 -0 -0 -0 -0 -0 -0 -4 -2 -1 -9 -1 -0 -0 -0 -0 -0 -0 -0 -0 -0 -0 -0 -0 -0 -1
-0 -125 -35 -37 -24 -22 -60 -52 -58 -46 -64 -194 -134 -69 -5 -155 -98 -52 -16 -48 -68 -26 -14 -11 -14 -6 -7 -5 -0 -3 -0 -1 -5 -4 -0 -0 -0 -0 -0 -8 -4 -0 -0 -0 -0 -0 -0 -0 -0
-208 -55 -57 -57 -27 -22 -65 -49 -68 -70 -120 -119 -101 -289 -190 -119 -129 -63 -16 -25 -40 -37 -19 -15 -20 -11 -4 -0 -0 -0 -0 -0 -0 -1 -2 -3 -0 -0 -10 -61 -60 -0 -0 -0 -0 -0 -0 -0 -0
-0 -45 -39 -53 -33 -33 -50 -34 -46 -52 -68 -144 -183 -201 -117 -129 -177 -157 -137 -161 -93 -90 -73 -32 -19 -16 -12 -4 -0 -0 -0 -0 -5 -11 -26 -31 -24 -16 -55 -94 -129 -67 -0 -0 -0 -0 -0 -0 -0
-0 -30 -64 -65 -51 -51 -61 -78 -42 -35 -33 -50 -159 -212 -132 -102 -176 -0 -0 -0 -169 -131 -83 -77 -44 -14 -6 -20 -2 -1 -6 -23 -16 -29 -47 -41 -56 -60 -70 -105 -81 -101 -15 -0 -0 -0 -0 -0 -0
-47 -76 -28 -52 -71 -65 -69 -77 -31 -21 -22 -34 -144 -182 -173 -168 -151 -0 -0 -0 -167 -166 -98 -68 -53 -19 -14 -0 -6 -18 -22 -18 -13 -32 -28 -38 -58 -60 -115 -99 -93 -67 -61 -1 -0 -0 -0 -0 -0
-0 -57 -68 -75 -78 -73 -89 -53 -33 -33 -44 -65 -118 -120 -131 -141 -0 -0 -0 -0 -205 -170 -148 -86 -57 -20 -9 -4 -18 -32 -16 -39 -85 -63 -87 -142 -0 -0 -50 -116 -105 -34 -45 -11 -4 -9 -19 -16 -4
-69 -64 -79 -81 -72 -86 -82 -85 -63 -58 -57 -78 -97 -94 -92 -91 -109 -0 -0 -152 -137 -141 -132 -108 -78 -38 -0 -0 -21 -26 -36 -45 -67 -85 -68 -0 -0 -0 -0 -118 -96 -30 -42 -77 -36 -40 -26 -5 -10
-82 -40 -74 -88 -94 -90 -95 -86 -86 -105 -82 -55 -74 -71 -77 -78 -95 -97 -109 -99 -82 -90 -81 -90 -68 -53 -30 -13 -36 -31 -57 -36 -31 -58 -0 -0 -0 -0 -0 -152 -80 -31 -38 -90 -53 -12 -13 -19 -7
-55 -62 -29 -100 -101 -116 -102 -75 -111 -152 -121 -79 -59 -71 -82 -89 -89 -78 -82 -86 -82 -94 -107 -95 -100 -70 -39 -29 -29 -32 -40 -28 -26 -36 -118 -0 -0 -0 -0 -0 -80 -16 -23 -43 -29 -12 -12 -23 -12
-56 -18 -41 -70 -101 -101 -112 -72 -121 -169 -139 -116 -82 -68 -69 -74 -83 -85 -89 -100 -79 -108 -113 -111 -97 -75 -58 -49 -24 -27 -34 -17 -21 -35 -5 -9 -67 -90 -94 -0 -41 -13 -8 -17 -33 -21 -23 -13 -13
-29 -30 -43 -38 -71 -106 -87 -81 -120 -165 -147 -137 -124 -86 -74 -61 -64 -82 -94 -99 -133 -114 -117 -111 -112 -92 -64 -62 -51 -33 -28 -49 -75 -101 -99 -71 -20 -30 -28 -29 -28 -12 -14 -9 -18 -12 -17 -17 -27
-90 -7 -33 -43 -80 -75 -72 -98 -108 -163 -162 -142 -143 -138 -104 -74 -32 -63 -87 -108 -104 -114 -115 -127 -126 -100 -71 -59 -57 -47 -33 -14 -31 -40 -49 -69 -48 -13 -14 -21 -18 -26 -22 -13 -10 -15 -28 -14 -43
-36 -74 -7 -0 -102 -74 -100 -82 -136 -161 -140 -139 -128 -133 -122 -100 -70 -63 -80 -118 -111 -111 -118 -119 -125 -113 -98 -71 -69 -46 -39 -26 -32 -42 -46 -44 -40 -30 -33 -35 -36 -18 -13 -13 -13 -14 -14 -17 -13
-72 -35 -24 -0 -116 -142 -111 -68 -97 -146 -171 -169 -161 -153 -135 -120 -105 -85 -104 -83 -100 -124 -143 -127 -135 -124 -109 -92 -72 -61 -56 -55 -34 -41 -44 -44 -41 -40 -32 -21 -51 -46 -37 -24 -11 -11 -13 -0 -14
-10 -47 -0 -6 -0 -25 -124 -19 -56 -113 -141 -186 -150 -157 -155 -130 -134 -107 -120 -96 -93 -104 -152 -158 -142 -124 -113 -102 -78 -76 -48 -33 -26 -28 -35 -42 -48 -47 -51 -56 -69 -41 -38 -62 -46 -12 -20 -19 -19
-0 -0 -0 -4 -5 -70 -60 -45 -8 -157 -78 -127 -175 -124 -142 -145 -130 -124 -112 -88 -107 -123 -139 -162 -177 -142 -128 -114 -97 -78 -59 -53 -47 -42 -47 -58 -75 -80 -73 -68 -39 -65 -11 -40 -31 -24 -13 -14 -28
-0 -0 -0 -0 -0 -0 -0 -36 -0 -0 -35 -207 -235 -204 -134 -161 -155 -150 -150 -164 -157 -183 -217 -211 -182 -163 -171 -134 -129 -123 -82 -59 -45 -49 -30 -19 -45 -57 -76 -102 -113 -225 -130 -36 -23 -12 -8 -1 -2
-0 -0 -0 -0 -0 -0 -0 -53 -0 -0 -218 -286 -323 -293 -230 -229 -250 -208 -175 -173 -196 -205 -222 -208 -188 -170 -178 -173 -154 -129 -107 -82 -47 -33 -42 -33 -47 -39 -50 -89 -135 -154 -182 -142 -169 -104 -12 -3 -2
-3 -0 -0 -0 -0 -0 -0 -0 -0 -124 -318 -365 -408 -413 -380 -375 -294 -216 -235 -239 -246 -235 -251 -229 -218 -190 -220 -216 -201 -178 -166 -139 -128 -80 -46 -46 -25 -50 -71 -64 -87 -135 -148 -135 -152 -115 -73 -12 -4
-0 -0 -0 -0 -0 -0 -0 -3 -55 -121 -176 -335 -426 -448 -438 -418 -369 -390 -364 -323 -366 -348 -300 -223 -170 -181 -228 -228 -259 -239 -195 -163 -226 -269 -171 -59 -46 -74 -67 -50 -42 -67 -104 -92 -161 -132 -119 -73 -50
-0 -0 -0 -0 -0 -0 -0 -46 -6 -23 -54 -284 -330 -405 -469 -484 -449 -362 -302 -314 -349 -307 -320 -206 -176 -178 -202 -283 -262 -315 -356 -386 -396 -321 -227 -205 -109 -67 -88 -31 -39 -59 -34 -28 -20 -14 -3 -0 -0
-0 -0 -0 -0 -0 -0 -0 -4 -64 -55 -161 -274 -380 -435 -475 -445 -414 -330 -211 -173 -240 -309 -298 -268 -255 -227 -238 -206 -255 -132 -441 -387 -363 -382 -300 -284 -165 -73 -29 -135 -30 -30 -15 -35 -36 -12 -2 -2 -2
-0 -0 -0 -0 -0 -0 -0 -0 -164 -199 -330 -326 -416 -441 -447 -438 -395 -295 -213 -170 -182 -195 -265 -355 -259 -215 -217 -263 -13 -0 -373 -291 -303 -329 -312 -328 -301 -304 -216 -10 -18 -38 -63 -59 -70 -74 -106 -126 -138
Wind_Speed
17 18 18 14 17 8 18 14 20 22 21 18 22 18 19 9 17 18 18 24 26 26 26 25 24 24 24 24 22 23 25 26 26 26 26 25 25 25 25 24 25 24 23 22 21 21 20 19 18
18 19 15 14 19 18 15 13 20 19 18 19 18 18 8 17 13 15 20 23 25 25 25 24 22 23 23 23 23 23 24 25 25 25 24 24 24 24 24 23 24 24 23 22 20 18 17 16 16
19 16 14 17 19 19 12 19 19 18 17 18 16 14 14 7 5 22 13 22 23 25 24 23 21 20 21 21 22 22 22 23 22 22 22 22 23 23 23 22 23 23 23 21 18 15 15 16 15
13 15 17 19 19 11 9 19 20 19 17 14 15 17 14 16 18 15 24 22 21 22 22 22 21 20 20 20 20 20 21 21 20 21 21 22 21 21 21 21 21 20 21 19 11 12 11 13 14
20 16 21 18 19 19 17 16 16 17 17 16 15 17 16 15 17 24 25 22 21 22 20 20 19 19 19 19 19 18 18 19 19 18 19 21 20 19 19 19 19 19 19 17 16 10 9 10 13
20 20 21 19 11 17 16 16 15 17 18 18 18 19 17 4 24 27 25 22 23 24 21 18 17 17 16 17 17 17 16 16 16 17 18 19 18 18 18 17 17 17 18 19 17 16 15 17 15
22 23 21 20 17 17 17 15 15 16 19 19 18 19 19 19 23 27 24 22 24 23 22 20 18 18 17 16 15 16 15 14 14 15 16 15 16 16 16 16 16 16 17 18 18 17 16 17 19
19 22 22 21 20 16 16 16 17 18 19 20 19 18 21 23 25 24 22 23 25 24 23 22 19 18 16 15 14 13 14 14 12 12 12 12 13 14 15 15 15 15 16 16 17 17 16 15 17
13 21 22 22 20 20 17 16 17 17 20 18 16 19 22 25 24 25 23 24 24 24 23 22 19 17 15 15 16 12 11 12 9 9 10 9 10 11 12 15 16 16 16 16 15 15 15 15 16
17 18 19 19 19 21 18 17 17 18 18 14 17 19 23 25 25 27 27 25 26 24 24 22 19 18 18 15 12 9 10 7 7 8 8 7 8 8 14 14 18 16 16 16 16 15 14 15 15
17 18 16 16 20 21 20 19 17 17 17 17 19 22 24 25 26 27 26 25 25 24 22 22 19 17 15 14 13 7 8 6 5 6 5 2 10 6 7 13 22 19 16 17 16 14 14 14 12
17 12 16 19 20 21 20 20 18 17 14 17 20 23 24 24 25 26 25 24 24 24 22 21 19 17 17 13 12 6 6 8 7 8 8 10 12 4 6 19 21 20 17 15 14 13 13 12 12
16 14 16 19 20 21 22 21 20 17 17 18 21 23 24 23 24 24 24 22 23 22 21 21 20 19 16 13 15 18 7 6 6 4 9 24 20 18 21 22 20 17 15 16 13 11 11 11 14
15 17 18 18 19 19 20 20 8 19 18 19 21 22 24 23 23 22 22 21 21 19 20 20 19 19 16 12 20 19 12 13 12 21 20 20 23 23 23 22 20 17 13 17 15 12 12 11 12
15 13 16 17 17 17 16 17 8 22 21 21 21 21 24 22 22 23 23 21 19 19 19 18 18 18 17 15 17 18 17 16 17 18 18 18 20 23 24 24 20 15 8 11 15 14 14 11 10
12 12 14 15 15 15 2 16 19 21 22 22 22 22 23 24 23 22 21 21 20 18 17 17 17 18 18 18 17 17 18 17 15 16 16 16 15 12 21 23 18 17 10 7 20 13 12 10 10
14 17 9 13 12 14 13 17 15 18 20 21 21 22 21 22 23 22 20 20 18 15 15 16 17 18 18 18 18 17 18 17 19 16 17 15 10 7 7 9 16 12 12 16 17 18 11 8 7
17 18 10 11 11 10 10 10 14 16 17 19 20 20 20 19 21 20 19 19 18 15 16 15 16 18 17 17 16 16 15 16 16 19 19 16 14 10 8 5 4 17 18 17 14 16 10 9 11
16 18 21 7 9 10 10 9 12 14 17 17 18 19 20 19 19 18 18 17 15 15 15 17 16 16 15 16 16 16 14 13 10 18 20 18 16 15 14 14 7 5 16 19 5 9 13 9 10
18 15 19 19 11 9 12 12 12 12 15 16 17 17 17 18 15 15 17 17 16 14 15 17 16 15 15 15 16 13 11 17 19 19 19 17 17 16 11 8 17 23 26 25 14 8 5 6 11
16 18 19 19 19 10 16 21 8 7 15 15 17 17 17 16 15 14 16 17 15 13 15 16 16 17 16 16 15 10 12 20 20 19 19 16 15 15 9 4 4 26 28 28 26 8 6 8 7
18 13 14 19 17 17 12 22 18 11 6 9 17 17 15 16 15 13 12 12 13 12 13 15 16 16 17 15 16 16 18 21 22 20 20 19 13 12 7 5 10 20 24 15 26 4 6 9 5
18 17 19 18 14 18 17 19 21 19 14 7 10 18 17 15 12 11 12 12 10 7 9 11 13 14 14 15 16 13 16 16 21 23 22 20 15 9 8 10 11 17 8 7 13 6 8 5 6
19 18 17 15 15 20 21 19 24 22 21 23 15 9 15 8 4 7 11 12 11 10 8 9 10 11 10 8 12 11 10 23 25 22 23 22 21 13 8 9 11 14 14 13 9 11 6 17 9
15 16 18 17 16 20 20 16 24 14 23 22 23 21 7 9 5 5 9 10 9 9 8 5 4 7 9 8 5 5 2 7 21 24 25 24 22 22 15 9 10 11 12 12 13 13 13 12 12
20 18 24 20 20 18 18 19 20 17 19 20 22 19 14 8 6 5 5 7 10 6 7 7 3 2 6 5 3 8 12 10 12 17 15 22 26 20 18 16 8 10 11 10 10 11 10 9 9
17 23 19 15 19 20 18 16 13 15 19 20 21 19 17 13 9 7 8 6 6 8 6 3 1 3 10 13 12 10 10 16 15 16 13 17 17 22 23 19 17 12 11 13 14 13 13 14 10
18 11 13 18 23 25 20 20 16 18 18 20 19 19 17 15 13 11 10 10 11 11 11 9 3 5 8 9 11 14 12 11 15 18 18 18 21 22 29 27 16 10 11 13 15 17 18 20 23
14 15 18 17 19 24 26 22 12 10 17 18 17 17 16 15 15 14 14 13 12 12 13 12 8 6 8 11 14 13 20 22 20 23 18 18 21 24 22 32 7 10 11 14 16 17 19 21 23
14 18 12 18 16 18 23 24 15 12 14 13 14 16 17 15 14 13 13 10 10 12 12 12 10 11 14 17 21 20 24 27 28 27 26 24 25 29 4 2 7 10 14 17 18 22 23 25 27
Wind_Direction
100 98 100 157 102 332 23 341 101 78 91 92 102 128 109 246 154 91 127 111 114 111 111 107 99 96 94 93 89 87 90 95 97 98 96 97 100 101 104 96 96 89 84 80 72 76 70 62 61
78 99 136 156 81 63 10 120 67 94 84 85 74 67 101 95 230 68 103 113 115 113 112 108 101 99 97 94 92 91 92 93 96 97 96 91 95 99 97 88 98 101 97 87 75 68 58 59 59
104 136 155 124 68 64 330 105 79 60 72 97 73 341 259 194 344 106 97 113 114 115 112 109 101 98 96 95 94 93 90 92 91 90 89 92 96 101 105 95 99 98 106 92 71 55 58 64 62
145 133 127 96 59 332 44 70 69 66 58 55 49 64 307 224 95 94 116 114 113 115 113 111 105 102 99 97 95 93 93 95 91 94 95 99 100 108 115 115 113 106 112 98 27 40 19 38 62
39 125 65 130 102 82 79 71 67 63 66 66 76 68 45 221 92 112 117 116 116 117 114 112 107 103 103 103 100 95 93 96 96 94 98 109 110 115 118 125 130 138 139 111 94 40 360 4 61
66 53 64 41 324 57 64 76 56 60 77 74 57 69 61 116 107 120 120 117 121 122 118 114 110 107 103 103 102 99 98 96 95 100 104 115 118 123 128 138 142 146 163 165 132 119 109 132 130
60 56 61 51 8 21 49 60 43 58 81 82 75 67 89 95 113 123 121 117 125 125 124 123 119 116 114 110 107 110 108 101 100 102 109 103 107 125 135 140 147 154 164 167 165 149 135 149 164
32 59 62 55 41 350 47 41 70 73 80 81 93 99 120 125 121 119 118 121 130 134 132 132 129 127 121 117 116 113 119 118 106 102 93 90 100 126 132 149 158 159 166 159 160 157 153 146 155
333 55 62 53 33 27 59 40 65 55 92 74 126 111 110 119 119 123 122 127 133 143 143 141 138 134 132 130 138 125 115 119 101 92 84 58 67 97 111 161 176 180 172 169 151 150 149 151 158
52 61 60 46 59 39 56 62 74 93 91 58 45 74 99 115 125 133 137 137 145 147 152 152 147 146 147 142 137 122 123 97 45 16 83 29 18 88 151 161 210 194 181 174 168 161 142 153 155
66 71 18 47 61 67 61 67 67 82 116 120 101 106 112 120 132 139 143 143 147 149 151 155 154 152 146 148 146 112 108 33 63 109 52 45 328 29 76 166 239 220 187 183 169 160 157 153 137
107 246 55 69 66 68 69 73 59 96 164 111 114 116 116 122 131 139 142 145 150 154 157 156 155 153 154 145 145 106 76 18 17 352 350 334 310 69 126 209 229 228 191 168 161 155 152 141 142
151 10 15 67 68 66 71 64 29 102 48 81 107 119 123 125 131 139 141 146 150 153 156 161 160 159 157 149 160 167 84 60 41 63 138 245 195 195 213 221 216 217 149 163 156 145 148 143 158
70 66 58 59 59 63 59 27 212 71 79 94 110 126 136 132 133 133 144 147 151 148 153 157 160 162 156 151 179 169 144 157 156 202 201 205 217 218 220 217 202 191 138 175 175 158 156 148 145
60 19 45 57 57 49 18 353 202 73 91 106 115 129 143 144 143 149 153 153 150 154 154 157 159 161 163 162 160 169 170 171 176 187 192 198 210 223 228 219 198 179 123 162 187 175 164 143 135
308 10 312 55 62 41 111 324 41 78 86 114 124 132 142 154 157 155 157 162 158 151 152 152 156 161 165 167 168 169 180 184 179 184 193 193 182 159 202 209 185 193 158 136 206 165 159 145 140
288 264 265 47 72 38 37 342 31 90 105 120 137 138 141 155 166 163 161 165 161 147 145 153 161 167 164 169 179 179 187 184 198 189 194 187 136 67 75 128 180 165 164 183 193 191 159 135 116
267 278 354 107 95 82 75 89 60 115 118 124 133 139 143 150 165 163 167 167 165 155 161 159 162 168 166 167 168 175 177 186 188 202 202 183 166 138 125 35 130 193 202 194 181 185 160 153 165
285 278 252 106 60 106 143 82 132 128 148 146 141 146 158 152 161 157 164 163 160 158 158 170 162 161 158 163 172 178 175 170 156 196 202 194 186 179 178 184 157 148 195 208 120 161 181 161 161
280 297 272 271 61 107 16 175 144 129 161 157 155 156 156 162 145 148 159 157 158 158 163 171 167 162 161 164 171 159 154 204 203 193 190 186 187 187 167 173 205 223 236 234 193 157 81 125 145
291 291 290 291 335 13 342 302 113 118 174 168 174 173 168 163 154 145 154 162 156 148 160 169 164 167 165 167 165 138 152 215 211 199 193 177 176 186 165 138 274 285 256 253 236 170 110 164 76
286 307 329 307 313 321 5 294 346 12 101 157 182 178 170 172 167 155 151 153 154 156 156 157 160 166 168 160 169 169 182 208 235 250 241 215 164 175 148 152 206 302 227 201 232 4 17 0 115
289 286 307 327 329 314 323 320 326 345 1 165 178 190 183 175 164 156 160 163 148 126 145 150 152 158 157 160 167 157 173 175 236 262 257 269 254 124 117 117 131 215 52 118 171 100 352 85 120
287 295 304 324 327 307 316 315 310 326 338 337 358 177 188 172 159 153 166 165 155 148 143 150 147 148 147 144 157 159 157 198 218 211 232 250 292 12 79 107 132 147 155 153 102 147 92 295 162
305 297 295 304 308 307 321 323 305 289 304 306 311 326 135 165 137 123 145 158 150 148 152 142 149 155 159 160 152 152 327 323 255 275 260 264 292 292 346 102 119 131 147 162 160 153 173 173 186
276 290 281 288 303 312 323 322 317 1 289 296 324 341 24 70 117 126 106 132 138 126 152 164 169 192 173 173 291 309 305 309 309 304 314 298 285 304 315 322 49 134 126 127 87 116 132 131 162
289 248 290 314 309 307 324 340 358 5 347 328 339 355 14 30 39 24 28 43 30 35 21 151 326 294 301 294 295 295 302 294 304 306 314 311 315 299 291 302 312 343 8 2 6 11 7 5 26
287 294 294 294 298 296 313 323 335 338 347 340 338 346 7 20 19 15 12 5 349 356 6 357 17 325 307 296 288 287 289 294 294 302 303 305 306 306 280 272 304 344 352 354 350 343 339 335 327
302 294 296 305 303 300 302 313 353 8 350 345 350 359 8 15 8 10 5 2 353 354 353 354 353 4 338 317 299 288 286 286 287 286 296 301 309 308 282 238 338 341 347 347 343 341 338 334 331
299 290 316 300 311 315 312 312 346 357 355 10 8 8 12 23 23 18 16 18 11 360 358 1 359 348 334 321 301 294 288 285 288 286 286 285 297 302 44 73 341 345 336 332 331 326 326 324 323